| time (UTC) | temp C | wind direction | speed KPH | gust KPH | rain 1hr cm | rain 24hr cm | rain mn cm | humidity % | barometer mb |
| 20260903101233 | 31 | 180 | 0.0 | 0.0 | 0.00 | 0.00 | 0.00 | 38 | 1075.4 |
| 20260903100801 | 31 | 180 | 0.0 | 0.0 | 0.00 | 0.00 | 0.00 | 38 | 1075.4 |
| 20260903100329 | 31 | 180 | 0.0 | 0.0 | 0.00 | 0.00 | 0.00 | 38 | 1075.4 |
| 20260903095857 | 31 | 180 | 0.0 | 0.0 | 0.00 | 0.00 | 0.00 | 38 | 1075.5 |
| 20260903095426 | 31 | 180 | 0.0 | 0.0 | 0.00 | 0.00 | 0.00 | 38 | 1075.5 |
| 20260903094954 | 32 | 180 | 0.0 | 0.0 | 0.00 | 0.00 | 0.00 | 38 | 1075.6 |
| 20260903094522 | 32 | 180 | 0.0 | 0.0 | 0.00 | 0.00 | 0.00 | 38 | 1075.6 |
| 20260903094050 | 32 | 180 | 0.0 | 0.0 | 0.00 | 0.00 | 0.00 | 38 | 1075.5 |
| 20260903093617 | 32 | 180 | 0.0 | 0.0 | 0.00 | 0.00 | 0.00 | 38 | 1075.6 |
| 20260903093145 | 32 | 180 | 0.0 | 0.0 | 0.00 | 0.00 | 0.00 | 38 | 1075.6 |
| 20260903092713 | 33 | 180 | 0.0 | 0.0 | 0.00 | 0.00 | 0.00 | 38 | 1075.7 |
| 20260903092241 | 33 | 180 | 0.0 | 0.0 | 0.00 | 0.00 | 0.00 | 39 | 1075.8 |
| 20260903091808 | 34 | 180 | 0.0 | 0.0 | 0.00 | 0.00 | 0.00 | 39 | 1075.8 |
| 20260903090904 | 35 | 180 | 0.0 | 0.0 | 0.00 | 0.00 | 0.00 | 39 | 1075.7 |
| 20260903090431 | 35 | 180 | 0.0 | 0.0 | 0.00 | 0.00 | 0.00 | 39 | 1075.7 |
| 20260903085959 | 35 | 180 | 0.0 | 0.0 | 0.00 | 0.00 | 0.00 | 39 | 1075.6 |
| 20260903085526 | 35 | 180 | 0.0 | 0.0 | 0.00 | 0.00 | 0.00 | 40 | 1075.6 |
| 20260903085054 | 35 | 180 | 0.0 | 0.0 | 0.00 | 0.00 | 0.00 | 40 | 1075.5 |
| 20260903084621 | 35 | 180 | 0.0 | 0.0 | 0.00 | 0.00 | 0.00 | 40 | 1075.5 |
| 20260903084148 | 36 | 180 | 0.0 | 0.0 | 0.00 | 0.00 | 0.00 | 40 | 1075.4 |
| 20260903083715 | 36 | 180 | 0.0 | 0.0 | 0.00 | 0.00 | 0.00 | 40 | 1075.4 |
| 20260903083243 | 37 | 180 | 0.0 | 0.0 | 0.00 | 0.00 | 0.00 | 40 | 1075.6 |
| 20260903082810 | 37 | 180 | 0.0 | 0.0 | 0.00 | 0.00 | 0.00 | 40 | 1075.7 |
| 20260903082337 | 37 | 180 | 0.0 | 0.0 | 0.00 | 0.00 | 0.00 | 40 | 1075.9 |
| 20260903081904 | 36 | 180 | 0.0 | 0.0 | 0.00 | 0.00 | 0.00 | 41 | 1075.9 |
| 20260903081432 | 36 | 180 | 0.0 | 0.0 | 0.00 | 0.00 | 0.00 | 41 | 1075.9 |
| 20260903080959 | 35 | 180 | 0.0 | 0.0 | 0.00 | 0.00 | 0.00 | 42 | 1075.8 |
| 20260903080527 | 35 | 180 | 0.0 | 0.0 | 0.00 | 0.00 | 0.00 | 42 | 1075.7 |
| 20260903080058 | 35 | 180 | 0.0 | 0.0 | 0.00 | 0.00 | 0.00 | 42 | 1075.8 |
| 20260903080054 | 35 | 180 | 0.0 | 0.0 | 0.00 | 0.00 | 0.00 | 42 | 1075.8 |
| 20260903075621 | 35 | 180 | 0.0 | 0.0 | 0.00 | 0.00 | 0.00 | 42 | 1075.8 |
| 20260903075148 | 36 | 180 | 0.0 | 0.0 | 0.00 | 0.00 | 0.00 | 42 | 1075.9 |
| 20260903074715 | 36 | 180 | 0.0 | 0.0 | 0.00 | 0.00 | 0.00 | 42 | 1076.0 |
| 20260903073810 | 37 | 180 | 0.0 | 0.0 | 0.00 | 0.00 | 0.00 | 43 | 1076.1 |
| 20260903072909 | 34 | 180 | 0.0 | 0.0 | 0.00 | 0.00 | 0.00 | 45 | 1076.0 |
| 20260903072905 | 34 | 180 | 0.0 | 0.0 | 0.00 | 0.00 | 0.00 | 45 | 1076.0 |
| 20260903072436 | 33 | 180 | 0.0 | 0.0 | 0.00 | 0.00 | 0.00 | 46 | 1076.1 |
| 20260903072433 | 33 | 180 | 0.0 | 0.0 | 0.00 | 0.00 | 0.00 | 46 | 1076.1 |
| 20260903072000 | 32 | 180 | 0.0 | 0.0 | 0.00 | 0.00 | 0.00 | 47 | 1076.1 |
| 20260903071056 | 32 | 180 | 0.0 | 0.0 | 0.00 | 0.00 | 0.00 | 48 | 1076.0 |
| 20260903070627 | 33 | 180 | 0.0 | 0.0 | 0.00 | 0.00 | 0.00 | 48 | 1076.0 |
| 20260903070623 | 33 | 180 | 0.0 | 0.0 | 0.00 | 0.00 | 0.00 | 48 | 1076.0 |
| 20260903070154 | 35 | 180 | 0.0 | 0.0 | 0.00 | 0.00 | 0.00 | 48 | 1076.0 |
| 20260903070150 | 35 | 180 | 0.0 | 0.0 | 0.00 | 0.00 | 0.00 | 48 | 1076.0 |
| 20260903065721 | 35 | 180 | 0.0 | 0.0 | 0.00 | 0.00 | 0.00 | 48 | 1076.1 |
| 20260903065249 | 35 | 180 | 0.0 | 0.0 | 0.00 | 0.00 | 0.00 | 48 | 1076.1 |
| 20260903065245 | 35 | 180 | 0.0 | 0.0 | 0.00 | 0.00 | 0.00 | 48 | 1076.1 |
| 20260903064813 | 34 | 180 | 0.0 | 0.0 | 0.00 | 0.00 | 0.00 | 50 | 1076.1 |
| 20260903064344 | 33 | 180 | 0.0 | 0.0 | 0.00 | 0.00 | 0.00 | 51 | 1076.2 |
| 20260903064340 | 33 | 180 | 0.0 | 0.0 | 0.00 | 0.00 | 0.00 | 51 | 1076.2 |
| 20260903063912 | -17 | 180 | 0.0 | 0.0 | 0.00 | 0.00 | 0.00 | 53 | |
| 20260903063908 | 32 | 180 | 0.0 | 0.0 | 0.00 | 0.00 | 0.00 | 53 | 1076.1 |
| 20260903063440 | 31 | 180 | 0.0 | 0.0 | 0.00 | 0.00 | 0.00 | 55 | 1076.0 |
| 20260903063008 | 30 | 180 | 0.0 | 0.0 | 0.00 | 0.00 | 0.00 | 57 | 1076.0 |
| 20260903063004 | 30 | 180 | 0.0 | 0.0 | 0.00 | 0.00 | 0.00 | 57 | 1076.0 |
| 20260903062533 | 28 | 180 | 0.0 | 0.0 | 0.00 | 0.00 | 0.00 | 60 | 1076.0 |
| 20260903062101 | 27 | 180 | 0.0 | 0.0 | 0.00 | 0.00 | 0.00 | 63 | 1075.9 |
| 20260903061635 | 26 | 180 | 0.0 | 0.0 | 0.00 | 0.00 | 0.00 | 67 | 1076.0 |
| 20260903061630 | 26 | 180 | 0.0 | 0.0 | 0.00 | 0.00 | 0.00 | 67 | 1076.0 |
| 20260903061204 | 23 | 180 | 0.0 | 0.0 | 0.00 | 0.00 | 0.00 | 73 | 1076.0 |
| 20260903061159 | 23 | 180 | 0.0 | 0.0 | 0.00 | 0.00 | 0.00 | 73 | 1076.0 |
| 20260903060729 | 22 | 180 | 0.0 | 0.0 | 0.00 | 0.00 | 0.00 | 79 | 1075.9 |
| 20260903060302 | 20 | 180 | 0.0 | 0.0 | 0.00 | 0.00 | 0.00 | 87 | 1075.9 |
| 20260903054932 | 15 | 180 | 0.0 | 0.0 | 0.00 | 0.00 | 0.00 | 100 | 1075.8 |
| 20260903054502 | 15 | 180 | 0.0 | 0.0 | 0.00 | 0.00 | 0.00 | 100 | 1075.7 |
| 20260903054032 | 15 | 180 | 0.0 | 0.0 | 0.00 | 0.00 | 0.00 | 100 | 1075.6 |
| 20260903054028 | 15 | 180 | 0.0 | 0.0 | 0.00 | 0.00 | 0.00 | 100 | 1075.6 |
| 20260903053601 | 15 | 180 | 0.0 | 0.0 | 0.00 | 0.00 | 0.00 | 100 | 1075.7 |
| 20260903053557 | 15 | 180 | 0.0 | 0.0 | 0.00 | 0.00 | 0.00 | 100 | 1075.7 |
| 20260903053132 | 15 | 180 | 0.0 | 0.0 | 0.00 | 0.00 | 0.00 | 100 | 1075.6 |
| 20260903053127 | 15 | 180 | 0.0 | 0.0 | 0.00 | 0.00 | 0.00 | 100 | 1075.6 |
| 20260903052701 | 15 | 180 | 0.0 | 0.0 | 0.00 | 0.00 | 0.00 | 100 | 1075.6 |
| 20260903052657 | 15 | 180 | 0.0 | 0.0 | 0.00 | 0.00 | 0.00 | 100 | 1075.6 |
| 20260903051757 | 15 | 180 | 0.0 | 0.0 | 0.00 | 0.00 | 0.00 | 100 | 1075.6 |
| 20260903051327 | 15 | 180 | 0.0 | 0.0 | 0.00 | 0.00 | 0.00 | 100 | 1075.6 |
| 20260903050901 | 15 | 180 | 0.0 | 0.0 | 0.00 | 0.00 | 0.00 | 100 | 1075.6 |
| 20260903050857 | 15 | 180 | 0.0 | 0.0 | 0.00 | 0.00 | 0.00 | 100 | 1075.6 |
| 20260903050431 | 15 | 180 | 0.0 | 0.0 | 0.00 | 0.00 | 0.00 | 100 | 1075.5 |
| 20260903050427 | 15 | 180 | 0.0 | 0.0 | 0.00 | 0.00 | 0.00 | 100 | 1075.5 |
| 20260903045531 | 15 | 180 | 0.0 | 0.0 | 0.00 | 0.00 | 0.00 | 100 | 1075.4 |
| 20260903045527 | 15 | 180 | 0.0 | 0.0 | 0.00 | 0.00 | 0.00 | 100 | 1075.4 |
| 20260903044630 | 15 | 180 | 0.0 | 0.0 | 0.00 | 0.00 | 0.00 | 100 | 1075.5 |
| 20260903044626 | 15 | 180 | 0.0 | 0.0 | 0.00 | 0.00 | 0.00 | 100 | 1075.5 |
| 20260903044200 | 15 | 180 | 0.0 | 0.0 | 0.00 | 0.00 | 0.00 | 100 | 1075.5 |
| 20260903044156 | 15 | 180 | 0.0 | 0.0 | 0.00 | 0.00 | 0.00 | 100 | 1075.5 |
| 20260903043730 | 15 | 180 | 0.0 | 0.0 | 0.00 | 0.00 | 0.00 | 100 | 1075.4 |
| 20260903043726 | 15 | 180 | 0.0 | 0.0 | 0.00 | 0.00 | 0.00 | 100 | 1075.4 |
| 20260903043300 | 15 | 180 | 0.0 | 0.0 | 0.00 | 0.00 | 0.00 | 100 | 1075.5 |
| 20260903043256 | 15 | 180 | 0.0 | 0.0 | 0.00 | 0.00 | 0.00 | 100 | 1075.5 |
| 20260903042826 | 15 | 180 | 0.0 | 0.0 | 0.00 | 0.00 | 0.00 | 100 | 1075.5 |
| 20260903042400 | 15 | 180 | 0.0 | 0.0 | 0.00 | 0.00 | 0.00 | 100 | 1075.5 |
| 20260903042356 | 15 | 180 | 0.0 | 0.0 | 0.00 | 0.00 | 0.00 | 100 | 1075.5 |
| 20260903041930 | 15 | 180 | 0.0 | 0.0 | 0.00 | 0.00 | 0.00 | 100 | 1075.5 |
| 20260903041926 | 15 | 180 | 0.0 | 0.0 | 0.00 | 0.00 | 0.00 | 100 | 1075.5 |
| 20260903041459 | 15 | 180 | 0.0 | 0.0 | 0.00 | 0.00 | 0.00 | 100 | 1075.5 |
| 20260903041456 | 15 | 180 | 0.0 | 0.0 | 0.00 | 0.00 | 0.00 | 100 | 1075.5 |
| 20260903041029 | 15 | 180 | 0.0 | 0.0 | 0.00 | 0.00 | 0.00 | 100 | 1075.5 |
| 20260903041026 | 15 | 180 | 0.0 | 0.0 | 0.00 | 0.00 | 0.00 | 100 | 1075.5 |
| 20260903040129 | 15 | 180 | 0.0 | 0.0 | 0.00 | 0.00 | 0.00 | 100 | 1075.3 |
| 20260903040125 | 15 | 180 | 0.0 | 0.0 | 0.00 | 0.00 | 0.00 | 100 | 1075.3 |
| 20260903035659 | 15 | 180 | 0.0 | 0.0 | 0.00 | 0.00 | 0.00 | 100 | 1075.3 |
| 20260903035655 | 15 | 180 | 0.0 | 0.0 | 0.00 | 0.00 | 0.00 | 100 | 1075.3 |
| 20260903035229 | 15 | 180 | 0.0 | 0.0 | 0.00 | 0.00 | 0.00 | 100 | 1075.3 |
| 20260903035225 | 15 | 180 | 0.0 | 0.0 | 0.00 | 0.00 | 0.00 | 100 | 1075.3 |
| 20260903034759 | 15 | 180 | 0.0 | 0.0 | 0.00 | 0.00 | 0.00 | 100 | 1075.3 |
| 20260903034755 | 15 | 180 | 0.0 | 0.0 | 0.00 | 0.00 | 0.00 | 100 | 1075.3 |
| 20260903034329 | 15 | 180 | 0.0 | 0.0 | 0.00 | 0.00 | 0.00 | 100 | 1075.3 |
| 20260903034325 | 15 | 180 | 0.0 | 0.0 | 0.00 | 0.00 | 0.00 | 100 | 1075.3 |
| 20260903033425 | 15 | 180 | 0.0 | 0.0 | 0.00 | 0.00 | 0.00 | 100 | 1075.3 |
| 20260903032958 | 15 | 180 | 0.0 | 0.0 | 0.00 | 0.00 | 0.00 | 100 | 1075.3 |
| 20260903032954 | 15 | 180 | 0.0 | 0.0 | 0.00 | 0.00 | 0.00 | 100 | 1075.3 |
| 20260903032528 | 15 | 180 | 0.0 | 0.0 | 0.00 | 0.00 | 0.00 | 100 | 1075.4 |
| 20260903032524 | 15 | 180 | 0.0 | 0.0 | 0.00 | 0.00 | 0.00 | 100 | 1075.4 |
| 20260903032058 | 15 | 180 | 0.0 | 0.0 | 0.00 | 0.00 | 0.00 | 100 | 1075.4 |
| 20260903032054 | 15 | 180 | 0.0 | 0.0 | 0.00 | 0.00 | 0.00 | 100 | 1075.4 |
| 20260903031628 | 15 | 180 | 0.0 | 0.0 | 0.00 | 0.00 | 0.00 | 100 | 1075.4 |
| 20260903031624 | 15 | 180 | 0.0 | 0.0 | 0.00 | 0.00 | 0.00 | 100 | 1075.4 |
| 20260903031158 | 15 | 180 | 0.0 | 0.0 | 0.00 | 0.00 | 0.00 | 100 | 1075.4 |
| 20260903031154 | 15 | 180 | 0.0 | 0.0 | 0.00 | 0.00 | 0.00 | 100 | 1075.4 |
| 20260903030728 | 15 | 180 | 0.0 | 0.0 | 0.00 | 0.00 | 0.00 | 100 | 1075.4 |
| 20260903025827 | 15 | 180 | 0.0 | 0.0 | 0.00 | 0.00 | 0.00 | 100 | 1075.4 |
| 20260903025823 | 15 | 180 | 0.0 | 0.0 | 0.00 | 0.00 | 0.00 | 100 | 1075.4 |
| 20260903025357 | 15 | 180 | 0.0 | 0.0 | 0.00 | 0.00 | 0.00 | 100 | 1075.5 |
| 20260903025353 | 15 | 180 | 0.0 | 0.0 | 0.00 | 0.00 | 0.00 | 100 | 1075.5 |
| 20260903024927 | 15 | 180 | 0.0 | 0.0 | 0.00 | 0.00 | 0.00 | 100 | 1075.4 |
| 20260903024923 | 15 | 180 | 0.0 | 0.0 | 0.00 | 0.00 | 0.00 | 100 | 1075.4 |
| 20260903024457 | 15 | 180 | 0.0 | 0.0 | 0.00 | 0.00 | 0.00 | 100 | 1075.4 |
| 20260903024026 | 15 | 180 | 0.0 | 0.0 | 0.00 | 0.00 | 0.00 | 100 | 1075.5 |
| 20260903024023 | 15 | 180 | 0.0 | 0.0 | 0.00 | 0.00 | 0.00 | 100 | 1075.5 |
| 20260903023557 | 15 | 180 | 0.0 | 0.0 | 0.00 | 0.00 | 0.00 | 100 | 1075.4 |
| 20260903023553 | 15 | 180 | 0.0 | 0.0 | 0.00 | 0.00 | 0.00 | 100 | 1075.4 |
| 20260903023127 | 15 | 180 | 0.0 | 0.0 | 0.00 | 0.00 | 0.00 | 100 | 1075.4 |
| 20260903023122 | 15 | 180 | 0.0 | 0.0 | 0.00 | 0.00 | 0.00 | 100 | 1075.4 |
| 20260903022657 | 15 | 180 | 0.0 | 0.0 | 0.00 | 0.00 | 0.00 | 100 | 1075.3 |
| 20260903022652 | 15 | 180 | 0.0 | 0.0 | 0.00 | 0.00 | 0.00 | 100 | 1075.3 |
| 20260903022227 | 15 | 180 | 0.0 | 0.0 | 0.00 | 0.00 | 0.00 | 100 | 1075.3 |
| 20260903021756 | 15 | 180 | 0.0 | 0.0 | 0.00 | 0.00 | 0.00 | 100 | 1075.3 |
| 20260903021752 | 15 | 180 | 0.0 | 0.0 | 0.00 | 0.00 | 0.00 | 100 | 1075.3 |
| 20260903021322 | 15 | 180 | 0.0 | 0.0 | 0.00 | 0.00 | 0.00 | 99 | 1075.2 |
| 20260903020856 | 15 | 180 | 0.0 | 0.0 | 0.00 | 0.00 | 0.00 | 98 | 1075.3 |
| 20260903020852 | 15 | 180 | 0.0 | 0.0 | 0.00 | 0.00 | 0.00 | 98 | 1075.3 |
| 20260903020425 | 15 | 180 | 0.0 | 0.0 | 0.00 | 0.00 | 0.00 | 98 | 1075.2 |
| 20260903020421 | 15 | 180 | 0.0 | 0.0 | 0.00 | 0.00 | 0.00 | 98 | 1075.2 |
| 20260903015955 | 15 | 180 | 0.0 | 0.0 | 0.00 | 0.00 | 0.00 | 97 | 1075.2 |
| 20260903015951 | 15 | 180 | 0.0 | 0.0 | 0.00 | 0.00 | 0.00 | 97 | 1075.2 |
| 20260903015525 | 15 | 180 | 0.0 | 0.0 | 0.00 | 0.00 | 0.00 | 97 | 1075.3 |
| 20260903015521 | 15 | 180 | 0.0 | 0.0 | 0.00 | 0.00 | 0.00 | 97 | 1075.3 |
| 20260903015055 | 15 | 180 | 0.0 | 0.0 | 0.00 | 0.00 | 0.00 | 95 | 1075.3 |
| 20260903015051 | 15 | 180 | 0.0 | 0.0 | 0.00 | 0.00 | 0.00 | 95 | 1075.3 |
| 20260903014624 | 15 | 180 | 0.0 | 0.0 | 0.00 | 0.00 | 0.00 | 95 | 1075.2 |
| 20260903014621 | 15 | 180 | 0.0 | 0.0 | 0.00 | 0.00 | 0.00 | 95 | 1075.2 |
| 20260903014154 | 15 | 180 | 0.0 | 0.0 | 0.00 | 0.00 | 0.00 | 94 | 1075.2 |
| 20260903014150 | 15 | 180 | 0.0 | 0.0 | 0.00 | 0.00 | 0.00 | 94 | 1075.2 |
| 20260903013724 | 16 | 180 | 0.0 | 0.0 | 0.00 | 0.00 | 0.00 | 94 | 1075.2 |
| 20260903013720 | 16 | 180 | 0.0 | 0.0 | 0.00 | 0.00 | 0.00 | 94 | 1075.2 |
| 20260903013254 | 16 | 180 | 0.0 | 0.0 | 0.00 | 0.00 | 0.00 | 93 | 1075.2 |
| 20260903013250 | 16 | 180 | 0.0 | 0.0 | 0.00 | 0.00 | 0.00 | 93 | 1075.2 |
| 20260903012824 | 16 | 180 | 0.0 | 0.0 | 0.00 | 0.00 | 0.00 | 93 | 1075.3 |
| 20260903012820 | 16 | 180 | 0.0 | 0.0 | 0.00 | 0.00 | 0.00 | 93 | 1075.3 |
| 20260903012353 | 16 | 180 | 0.0 | 0.0 | 0.00 | 0.00 | 0.00 | 92 | 1075.3 |
| 20260903012350 | 16 | 180 | 0.0 | 0.0 | 0.00 | 0.00 | 0.00 | 92 | 1075.3 |
| 20260903011923 | 16 | 180 | 0.0 | 0.0 | 0.00 | 0.00 | 0.00 | 92 | 1075.3 |
| 20260903011919 | 16 | 180 | 0.0 | 0.0 | 0.00 | 0.00 | 0.00 | 92 | 1075.3 |
| 20260903011453 | 16 | 180 | 0.0 | 0.0 | 0.00 | 0.00 | 0.00 | 92 | 1075.3 |
| 20260903011449 | 16 | 180 | 0.0 | 0.0 | 0.00 | 0.00 | 0.00 | 92 | 1075.3 |
| 20260903011019 | 16 | 180 | 0.0 | 0.0 | 0.00 | 0.00 | 0.00 | 92 | 1075.2 |
| 20260903010553 | 16 | 180 | 0.0 | 0.0 | 0.00 | 0.00 | 0.00 | 91 | 1075.2 |
| 20260903010549 | 16 | 180 | 0.0 | 0.0 | 0.00 | 0.00 | 0.00 | 91 | 1075.2 |
| 20260903010122 | 16 | 180 | 0.0 | 0.0 | 0.00 | 0.00 | 0.00 | 90 | 1075.4 |
| 20260903010119 | 16 | 180 | 0.0 | 0.0 | 0.00 | 0.00 | 0.00 | 90 | 1075.4 |
| 20260903005652 | 16 | 180 | 0.0 | 0.0 | 0.00 | 0.00 | 0.00 | 90 | 1075.3 |
| 20260903005648 | 16 | 180 | 0.0 | 0.0 | 0.00 | 0.00 | 0.00 | 90 | 1075.3 |
| 20260903005222 | 16 | 180 | 0.0 | 0.0 | 0.00 | 0.00 | 0.00 | 91 | 1075.3 |
| 20260903004752 | 16 | 180 | 0.0 | 0.0 | 0.00 | 0.00 | 0.00 | 91 | 1075.3 |
| 20260903004748 | 16 | 180 | 0.0 | 0.0 | 0.00 | 0.00 | 0.00 | 91 | 1075.3 |
| 20260903004322 | 16 | 180 | 0.0 | 0.0 | 0.00 | 0.00 | 0.00 | 90 | 1075.3 |
| 20260903004318 | 16 | 180 | 0.0 | 0.0 | 0.00 | 0.00 | 0.00 | 90 | 1075.3 |
| 20260903003851 | 16 | 180 | 0.0 | 0.0 | 0.00 | 0.00 | 0.00 | 90 | 1075.3 |
| 20260903003848 | 16 | 180 | 0.0 | 0.0 | 0.00 | 0.00 | 0.00 | 90 | 1075.3 |
| 20260903003421 | 16 | 180 | 0.0 | 0.0 | 0.00 | 0.00 | 0.00 | 89 | 1075.2 |
| 20260903003417 | 16 | 180 | 0.0 | 0.0 | 0.00 | 0.00 | 0.00 | 89 | 1075.2 |
| 20260903002951 | 16 | 180 | 0.0 | 0.0 | 0.00 | 0.00 | 0.00 | 89 | 1075.2 |
| 20260903002947 | 16 | 180 | 0.0 | 0.0 | 0.00 | 0.00 | 0.00 | 89 | 1075.2 |
| 20260903002521 | 16 | 180 | 0.0 | 0.0 | 0.00 | 0.00 | 0.00 | 89 | 1075.2 |
| 20260903002517 | 16 | 180 | 0.0 | 0.0 | 0.00 | 0.00 | 0.00 | 89 | 1075.2 |
| 20260903002050 | 16 | 180 | 0.0 | 0.0 | 0.00 | 0.00 | 0.00 | 88 | 1075.2 |
| 20260903002047 | 16 | 180 | 0.0 | 0.0 | 0.00 | 0.00 | 0.00 | 88 | 1075.2 |
| 20260903001620 | 16 | 180 | 0.0 | 0.0 | 0.00 | 0.00 | 0.00 | 87 | 1075.2 |
| 20260903001616 | 16 | 180 | 0.0 | 0.0 | 0.00 | 0.00 | 0.00 | 87 | 1075.2 |
| 20260903001150 | 16 | 180 | 0.0 | 0.0 | 0.00 | 0.00 | 0.00 | 87 | 1075.2 |
| 20260903001146 | 16 | 180 | 0.0 | 0.0 | 0.00 | 0.00 | 0.00 | 87 | 1075.2 |
| 20260903000720 | 16 | 180 | 0.0 | 0.0 | 0.00 | 0.00 | 0.00 | 86 | 1075.3 |
| 20260903000716 | 16 | 180 | 0.0 | 0.0 | 0.00 | 0.00 | 0.00 | 86 | 1075.3 |
| 20260903000248 | 16 | 180 | 0.0 | 0.0 | 0.00 | 0.00 | 0.00 | 86 | 1075.3 |
| 20260902235819 | 16 | 180 | 0.0 | 0.0 | 0.00 | 0.00 | 0.00 | 86 | 1075.2 |
| 20260902235816 | 16 | 180 | 0.0 | 0.0 | 0.00 | 0.00 | 0.00 | 86 | 1075.2 |
| 20260902235350 | 16 | 180 | 0.0 | 0.0 | 0.00 | 0.00 | 0.00 | 86 | 1075.2 |
| 20260902235345 | 16 | 180 | 0.0 | 0.0 | 0.00 | 0.00 | 0.00 | 86 | 1075.2 |
| 20260902234915 | 16 | 180 | 0.0 | 0.0 | 0.00 | 0.00 | 0.00 | 86 | 1075.2 |
| 20260902234449 | 16 | 180 | 0.0 | 0.0 | 0.00 | 0.00 | 0.00 | 86 | 1075.3 |
| 20260902234445 | 16 | 180 | 0.0 | 0.0 | 0.00 | 0.00 | 0.00 | 86 | 1075.3 |
| 20260902234018 | 16 | 180 | 0.0 | 0.0 | 0.00 | 0.00 | 0.00 | 87 | 1075.3 |
| 20260902234015 | 16 | 180 | 0.0 | 0.0 | 0.00 | 0.00 | 0.00 | 87 | 1075.3 |
| 20260902233548 | 16 | 180 | 0.0 | 0.0 | 0.00 | 0.00 | 0.00 | 87 | 1075.3 |
| 20260902233544 | 16 | 180 | 0.0 | 0.0 | 0.00 | 0.00 | 0.00 | 87 | 1075.3 |
| 20260902233118 | 16 | 180 | 0.0 | 0.0 | 0.00 | 0.00 | 0.00 | 88 | 1075.4 |
| 20260902233114 | 16 | 180 | 0.0 | 0.0 | 0.00 | 0.00 | 0.00 | 88 | 1075.4 |
| 20260902232644 | 16 | 180 | 0.0 | 0.0 | 0.00 | 0.00 | 0.00 | 88 | 1075.4 |
| 20260902232218 | 16 | 180 | 0.0 | 0.0 | 0.00 | 0.00 | 0.00 | 89 | 1075.4 |
| 20260902232214 | 16 | 180 | 0.0 | 0.0 | 0.00 | 0.00 | 0.00 | 89 | 1075.4 |
| 20260902231748 | 16 | 180 | 0.0 | 0.0 | 0.00 | 0.00 | 0.00 | 89 | 1075.4 |
| 20260902231744 | 16 | 180 | 0.0 | 0.0 | 0.00 | 0.00 | 0.00 | 89 | 1075.4 |
| 20260902231317 | 16 | 180 | 0.0 | 0.0 | 0.00 | 0.00 | 0.00 | 89 | 1075.4 |
| 20260902231313 | 16 | 180 | 0.0 | 0.0 | 0.00 | 0.00 | 0.00 | 89 | 1075.4 |
| 20260902230843 | 16 | 180 | 0.0 | 0.0 | 0.00 | 0.00 | 0.00 | 88 | 1075.3 |
| 20260902230417 | 16 | 180 | 0.0 | 0.0 | 0.00 | 0.00 | 0.00 | 89 | 1075.3 |
| 20260902230413 | 16 | 180 | 0.0 | 0.0 | 0.00 | 0.00 | 0.00 | 89 | 1075.3 |
| 20260902225946 | 16 | 180 | 0.0 | 0.0 | 0.00 | 0.00 | 0.00 | 89 | 1075.3 |
| 20260902225943 | 16 | 180 | 0.0 | 0.0 | 0.00 | 0.00 | 0.00 | 89 | 1075.3 |
| 20260902225516 | 16 | 180 | 0.0 | 0.0 | 0.00 | 0.00 | 0.00 | 88 | 1075.3 |
| 20260902225512 | 16 | 180 | 0.0 | 0.0 | 0.00 | 0.00 | 0.00 | 88 | 1075.3 |
| 20260902225046 | 16 | 180 | 0.0 | 0.0 | 0.00 | 0.00 | 0.00 | 89 | 1075.3 |
| 20260902225042 | 16 | 180 | 0.0 | 0.0 | 0.00 | 0.00 | 0.00 | 89 | 1075.3 |
| 20260902224616 | 16 | 180 | 0.0 | 0.0 | 0.00 | 0.00 | 0.00 | 89 | 1075.3 |
| 20260902224612 | 16 | 180 | 0.0 | 0.0 | 0.00 | 0.00 | 0.00 | 89 | 1075.3 |
| 20260902224145 | 16 | 180 | 0.0 | 0.0 | 0.00 | 0.00 | 0.00 | 89 | 1075.4 |
| 20260902224142 | 16 | 180 | 0.0 | 0.0 | 0.00 | 0.00 | 0.00 | 89 | 1075.4 |
| 20260902223715 | 16 | 180 | 0.0 | 0.0 | 0.00 | 0.00 | 0.00 | 88 | 1075.4 |
| 20260902223711 | 16 | 180 | 0.0 | 0.0 | 0.00 | 0.00 | 0.00 | 88 | 1075.4 |
| 20260902223245 | 16 | 180 | 0.0 | 0.0 | 0.00 | 0.00 | 0.00 | 87 | 1075.5 |
| 20260902223241 | 16 | 180 | 0.0 | 0.0 | 0.00 | 0.00 | 0.00 | 87 | 1075.5 |
| 20260902222815 | 16 | 180 | 0.0 | 0.0 | 0.00 | 0.00 | 0.00 | 88 | 1075.5 |
| 20260902222811 | 16 | 180 | 0.0 | 0.0 | 0.00 | 0.00 | 0.00 | 88 | 1075.5 |
| 20260902222344 | 16 | 180 | 0.0 | 0.0 | 0.00 | 0.00 | 0.00 | 86 | 1075.5 |
| 20260902222341 | 16 | 180 | 0.0 | 0.0 | 0.00 | 0.00 | 0.00 | 86 | 1075.5 |
| 20260902221914 | 16 | 180 | 0.0 | 0.0 | 0.00 | 0.00 | 0.00 | 87 | 1075.4 |
| 20260902221910 | 16 | 180 | 0.0 | 0.0 | 0.00 | 0.00 | 0.00 | 87 | 1075.4 |
| 20260902221444 | 16 | 180 | 0.0 | 0.0 | 0.00 | 0.00 | 0.00 | 86 | 1075.4 |
| 20260902221440 | 16 | 180 | 0.0 | 0.0 | 0.00 | 0.00 | 0.00 | 86 | 1075.4 |
| 20260902221014 | 16 | 180 | 0.0 | 0.0 | 0.00 | 0.00 | 0.00 | 84 | 1075.4 |
| 20260902221010 | 16 | 180 | 0.0 | 0.0 | 0.00 | 0.00 | 0.00 | 84 | 1075.4 |
| 20260902220540 | 16 | 180 | 0.0 | 0.0 | 0.00 | 0.00 | 0.00 | 81 | 1075.4 |
| 20260902220113 | 16 | 180 | 0.0 | 0.0 | 0.00 | 0.00 | 0.00 | 80 | 1075.4 |
| 20260902220109 | 16 | 180 | 0.0 | 0.0 | 0.00 | 0.00 | 0.00 | 80 | 1075.4 |
| 20260902215643 | 16 | 180 | 0.0 | 0.0 | 0.00 | 0.00 | 0.00 | 78 | 1075.4 |
| 20260902215209 | 16 | 180 | 0.0 | 0.0 | 0.00 | 0.00 | 0.00 | 77 | 1075.4 |
| 20260902214742 | 16 | 180 | 0.0 | 0.0 | 0.00 | 0.00 | 0.00 | 77 | 1075.4 |
| 20260902214739 | 16 | 180 | 0.0 | 0.0 | 0.00 | 0.00 | 0.00 | 77 | 1075.4 |
| 20260902214308 | 16 | 180 | 0.0 | 0.0 | 0.00 | 0.00 | 0.00 | 76 | 1075.4 |
| 20260902213842 | 16 | 180 | 0.0 | 0.0 | 0.00 | 0.00 | 0.00 | 76 | 1075.3 |
| 20260902213838 | 16 | 180 | 0.0 | 0.0 | 0.00 | 0.00 | 0.00 | 76 | 1075.3 |
| 20260902213412 | 16 | 180 | 0.0 | 0.0 | 0.00 | 0.00 | 0.00 | 75 | 1075.3 |
| 20260902213408 | 16 | 180 | 0.0 | 0.0 | 0.00 | 0.00 | 0.00 | 75 | 1075.3 |
| 20260902212941 | 16 | 180 | 0.0 | 0.0 | 0.00 | 0.00 | 0.00 | 74 | 1075.3 |
| 20260902212937 | 16 | 180 | 0.0 | 0.0 | 0.00 | 0.00 | 0.00 | 74 | 1075.3 |
| 20260902212511 | 16 | 180 | 0.0 | 0.0 | 0.00 | 0.00 | 0.00 | 73 | 1075.3 |
| 20260902212507 | 16 | 180 | 0.0 | 0.0 | 0.00 | 0.00 | 0.00 | 73 | 1075.3 |
| 20260902212037 | 16 | 180 | 0.0 | 0.0 | 0.00 | 0.00 | 0.00 | 73 | 1075.3 |
| 20260902211607 | 17 | 180 | 0.0 | 0.0 | 0.00 | 0.00 | 0.00 | 72 | 1075.3 |
| 20260902211140 | 17 | 180 | 0.0 | 0.0 | 0.00 | 0.00 | 0.00 | 71 | 1075.2 |
| 20260902210710 | 17 | 180 | 0.0 | 0.0 | 0.00 | 0.00 | 0.00 | 72 | 1075.2 |
| 20260902210706 | 17 | 180 | 0.0 | 0.0 | 0.00 | 0.00 | 0.00 | 72 | 1075.2 |
| 20260902210239 | 17 | 180 | 0.0 | 0.0 | 0.00 | 0.00 | 0.00 | 71 | 1075.1 |
| 20260902210236 | 17 | 180 | 0.0 | 0.0 | 0.00 | 0.00 | 0.00 | 71 | 1075.1 |
| 20260902205809 | 17 | 180 | 0.0 | 0.0 | 0.00 | 0.00 | 0.00 | 72 | 1075.2 |
| 20260902205805 | 17 | 180 | 0.0 | 0.0 | 0.00 | 0.00 | 0.00 | 72 | 1075.2 |
| 20260902205335 | 17 | 180 | 0.0 | 0.0 | 0.00 | 0.00 | 0.00 | 72 | 1075.1 |
| 20260902204905 | 17 | 180 | 0.0 | 0.0 | 0.00 | 0.00 | 0.00 | 72 | 1075.0 |
| 20260902204438 | 17 | 180 | 0.0 | 0.0 | 0.00 | 0.00 | 0.00 | 71 | 1075.0 |
| 20260902204434 | 17 | 180 | 0.0 | 0.0 | 0.00 | 0.00 | 0.00 | 71 | 1075.0 |
| 20260902204008 | 17 | 180 | 0.0 | 0.0 | 0.00 | 0.00 | 0.00 | 70 | 1075.0 |
| 20260902204004 | 17 | 180 | 0.0 | 0.0 | 0.00 | 0.00 | 0.00 | 70 | 1075.0 |
| 20260902203537 | 17 | 180 | 0.0 | 0.0 | 0.00 | 0.00 | 0.00 | 68 | 1075.0 |
| 20260902203534 | 17 | 180 | 0.0 | 0.0 | 0.00 | 0.00 | 0.00 | 68 | 1075.0 |
| 20260902203107 | 17 | 180 | 0.0 | 0.0 | 0.00 | 0.00 | 0.00 | 67 | 1074.9 |
| 20260902203103 | 17 | 180 | 0.0 | 0.0 | 0.00 | 0.00 | 0.00 | 67 | 1074.9 |
| 20260902202637 | 17 | 180 | 0.0 | 0.0 | 0.00 | 0.00 | 0.00 | 66 | 1074.9 |
| 20260902202633 | 17 | 180 | 0.0 | 0.0 | 0.00 | 0.00 | 0.00 | 66 | 1074.9 |
| 20260902202206 | 17 | 180 | 0.0 | 0.0 | 0.00 | 0.00 | 0.00 | 65 | 1074.8 |
| 20260902202203 | 17 | 180 | 0.0 | 0.0 | 0.00 | 0.00 | 0.00 | 65 | 1074.8 |
| 20260902201736 | 17 | 180 | 0.0 | 0.0 | 0.00 | 0.00 | 0.00 | 66 | 1074.9 |
| 20260902201732 | 17 | 180 | 0.0 | 0.0 | 0.00 | 0.00 | 0.00 | 66 | 1074.9 |
| 20260902201306 | 17 | 180 | 0.0 | 0.0 | 0.00 | 0.00 | 0.00 | 66 | 1074.9 |
| 20260902201302 | 17 | 180 | 0.0 | 0.0 | 0.00 | 0.00 | 0.00 | 66 | 1074.9 |
| 20260902200832 | 17 | 180 | 0.0 | 0.0 | 0.00 | 0.00 | 0.00 | 64 | 1074.8 |
| 20260902200405 | 17 | 180 | 0.0 | 0.0 | 0.00 | 0.00 | 0.00 | 63 | 1074.8 |
| 20260902200401 | 17 | 180 | 0.0 | 0.0 | 0.00 | 0.00 | 0.00 | 63 | 1074.8 |
| 20260902195931 | 17 | 180 | 0.0 | 0.0 | 0.00 | 0.00 | 0.00 | 63 | 1074.7 |
| 20260902195500 | 17 | 180 | 0.0 | 0.0 | 0.00 | 0.00 | 0.00 | 62 | 1074.7 |
| 20260902195030 | 17 | 180 | 0.0 | 0.0 | 0.00 | 0.00 | 0.00 | 60 | 1074.7 |
| 20260902194603 | 17 | 180 | 0.0 | 0.0 | 0.00 | 0.00 | 0.00 | 60 | 1074.7 |
| 20260902194600 | 17 | 180 | 0.0 | 0.0 | 0.00 | 0.00 | 0.00 | 60 | 1074.7 |
| 20260902194133 | 17 | 180 | 0.0 | 0.0 | 0.00 | 0.00 | 0.00 | 59 | 1074.7 |
| 20260902194129 | 17 | 180 | 0.0 | 0.0 | 0.00 | 0.00 | 0.00 | 59 | 1074.7 |
| 20260902193659 | 18 | 180 | 0.0 | 0.0 | 0.00 | 0.00 | 0.00 | 59 | 1074.6 |
| 20260902193232 | 18 | 180 | 0.0 | 0.0 | 0.00 | 0.00 | 0.00 | 58 | 1074.7 |
| 20260902193228 | 18 | 180 | 0.0 | 0.0 | 0.00 | 0.00 | 0.00 | 58 | 1074.7 |
| 20260902192802 | 18 | 180 | 0.0 | 0.0 | 0.00 | 0.00 | 0.00 | 57 | 1074.7 |
| 20260902192758 | 18 | 180 | 0.0 | 0.0 | 0.00 | 0.00 | 0.00 | 57 | 1074.7 |
| 20260902192327 | 18 | 180 | 0.0 | 0.0 | 0.00 | 0.00 | 0.00 | 57 | 1074.7 |
| 20260902191857 | 18 | 180 | 0.0 | 0.0 | 0.00 | 0.00 | 0.00 | 56 | 1074.7 |
| 20260902191430 | 18 | 180 | 0.0 | 0.0 | 0.00 | 0.00 | 0.00 | 55 | 1074.7 |
| 20260902191426 | 18 | 180 | 0.0 | 0.0 | 0.00 | 0.00 | 0.00 | 55 | 1074.7 |
| 20260902191000 | 19 | 180 | 0.0 | 0.0 | 0.00 | 0.00 | 0.00 | 55 | 1074.6 |
| 20260902190529 | 19 | 180 | 0.0 | 0.0 | 0.00 | 0.00 | 0.00 | 54 | 1074.6 |
| 20260902190525 | 19 | 180 | 0.0 | 0.0 | 0.00 | 0.00 | 0.00 | 54 | 1074.6 |
| 20260902190055 | 19 | 180 | 0.0 | 0.0 | 0.00 | 0.00 | 0.00 | 53 | 1074.6 |
| 20260902185628 | 20 | 180 | 0.0 | 0.0 | 0.00 | 0.00 | 0.00 | 51 | 1074.6 |
| 20260902185624 | 20 | 180 | 0.0 | 0.0 | 0.00 | 0.00 | 0.00 | 51 | 1074.6 |
| 20260902185153 | 20 | 180 | 0.0 | 0.0 | 0.00 | 0.00 | 0.00 | 50 | 1074.7 |
| 20260902184723 | 20 | 180 | 0.0 | 0.0 | 0.00 | 0.00 | 0.00 | 48 | 1075.0 |
| 20260902184252 | 21 | 180 | 0.0 | 0.0 | 0.00 | 0.00 | 0.00 | 47 | 1074.8 |
| 20260902182920 | 21 | 180 | 0.0 | 0.0 | 0.00 | 0.00 | 0.00 | 46 | 1074.3 |
| 20260902182449 | 21 | 180 | 0.0 | 0.0 | 0.00 | 0.00 | 0.00 | 46 | 1074.2 |
| 20260902182018 | 21 | 180 | 0.0 | 0.0 | 0.00 | 0.00 | 0.00 | 46 | 1074.1 |
| 20260902181548 | 21 | 180 | 0.0 | 0.0 | 0.00 | 0.00 | 0.00 | 45 | 1074.0 |
| 20260902181118 | 21 | 180 | 0.0 | 0.0 | 0.00 | 0.00 | 0.00 | 45 | 1074.1 |
| 20260902180646 | 21 | 180 | 0.0 | 0.0 | 0.00 | 0.00 | 0.00 | 45 | 1074.0 |
| 20260902180215 | 21 | 180 | 0.0 | 0.0 | 0.00 | 0.00 | 0.00 | 45 | 1073.9 |
| 20260902175745 | 21 | 180 | 0.0 | 0.0 | 0.00 | 0.00 | 0.00 | 45 | 1073.9 |
| 20260902175314 | 21 | 180 | 0.0 | 0.0 | 0.00 | 0.00 | 0.00 | 44 | 1073.8 |
| 20260902174843 | 22 | 180 | 0.0 | 0.0 | 0.00 | 0.00 | 0.00 | 44 | 1073.8 |
| 20260902174412 | 22 | 180 | 0.0 | 0.0 | 0.00 | 0.00 | 0.00 | 44 | 1073.8 |
| 20260902173942 | 22 | 180 | 0.0 | 0.0 | 0.00 | 0.00 | 0.00 | 44 | 1073.7 |
| 20260902173511 | 22 | 180 | 0.0 | 0.0 | 0.00 | 0.00 | 0.00 | 44 | 1073.7 |
| 20260902173040 | 22 | 180 | 0.0 | 0.0 | 0.00 | 0.00 | 0.00 | 44 | 1073.8 |
| 20260902172609 | 22 | 180 | 0.0 | 0.0 | 0.00 | 0.00 | 0.00 | 43 | 1073.7 |
| 20260902172138 | 22 | 180 | 0.0 | 0.0 | 0.00 | 0.00 | 0.00 | 43 | 1073.7 |
| 20260902171707 | 22 | 180 | 0.0 | 0.0 | 0.00 | 0.00 | 0.00 | 43 | 1073.7 |
| 20260902171236 | 22 | 180 | 0.0 | 0.0 | 0.00 | 0.00 | 0.00 | 43 | 1073.7 |
| 20260902170806 | 23 | 180 | 0.0 | 0.0 | 0.00 | 0.00 | 0.00 | 43 | 1073.7 |
| 20260902165904 | 23 | 180 | 0.0 | 0.0 | 0.00 | 0.00 | 0.00 | 43 | 1073.7 |
| 20260902165433 | 23 | 180 | 0.0 | 0.0 | 0.00 | 0.00 | 0.00 | 43 | 1073.8 |
| 20260902164531 | 23 | 180 | 0.0 | 0.0 | 0.00 | 0.00 | 0.00 | 42 | 1073.9 |
| 20260902164100 | 23 | 180 | 0.0 | 0.0 | 0.00 | 0.00 | 0.00 | 42 | 1073.9 |
| 20260902163633 | 23 | 180 | 0.0 | 0.0 | 0.00 | 0.00 | 0.00 | 42 | 1073.8 |
| 20260902163629 | 23 | 180 | 0.0 | 0.0 | 0.00 | 0.00 | 0.00 | 42 | 1073.8 |
| 20260902163158 | 23 | 180 | 0.0 | 0.0 | 0.00 | 0.00 | 0.00 | 42 | 1073.8 |
| 20260902162727 | 23 | 180 | 0.0 | 0.0 | 0.00 | 0.00 | 0.00 | 42 | 1073.8 |
| 20260902162256 | 23 | 180 | 0.0 | 0.0 | 0.00 | 0.00 | 0.00 | 42 | 1073.8 |
| 20260902161825 | 23 | 180 | 0.0 | 0.0 | 0.00 | 0.00 | 0.00 | 41 | 1073.8 |
| 20260902161354 | 24 | 180 | 0.0 | 0.0 | 0.00 | 0.00 | 0.00 | 41 | 1073.8 |
| 20260902160928 | 24 | 180 | 0.0 | 0.0 | 0.00 | 0.00 | 0.00 | 41 | 1073.8 |
| 20260902160923 | 24 | 180 | 0.0 | 0.0 | 0.00 | 0.00 | 0.00 | 41 | 1073.8 |
| 20260902160456 | 24 | 180 | 0.0 | 0.0 | 0.00 | 0.00 | 0.00 | 41 | 1073.8 |
| 20260902160452 | 24 | 180 | 0.0 | 0.0 | 0.00 | 0.00 | 0.00 | 41 | 1073.8 |
| 20260902160021 | 24 | 180 | 0.0 | 0.0 | 0.00 | 0.00 | 0.00 | 41 | 1073.7 |
| 20260902155550 | 24 | 180 | 0.0 | 0.0 | 0.00 | 0.00 | 0.00 | 41 | 1073.7 |
| 20260902155124 | 24 | 180 | 0.0 | 0.0 | 0.00 | 0.00 | 0.00 | 41 | 1073.7 |
| 20260902155119 | 24 | 180 | 0.0 | 0.0 | 0.00 | 0.00 | 0.00 | 41 | 1073.7 |
| 20260902154648 | 25 | 180 | 0.0 | 0.0 | 0.00 | 0.00 | 0.00 | 41 | 1073.7 |
| 20260902154217 | 25 | 180 | 0.0 | 0.0 | 0.00 | 0.00 | 0.00 | 40 | 1073.6 |
| 20260902153746 | 25 | 180 | 0.0 | 0.0 | 0.00 | 0.00 | 0.00 | 40 | 1073.7 |
| 20260902153315 | 25 | 180 | 0.0 | 0.0 | 0.00 | 0.00 | 0.00 | 40 | 1073.8 |
| 20260902152844 | 25 | 180 | 0.0 | 0.0 | 0.00 | 0.00 | 0.00 | 40 | 1073.8 |
| 20260902152413 | 25 | 180 | 0.0 | 0.0 | 0.00 | 0.00 | 0.00 | 40 | 1073.8 |
| 20260902151942 | 25 | 180 | 0.0 | 0.0 | 0.00 | 0.00 | 0.00 | 39 | 1073.8 |
| 20260902150137 | 25 | 180 | 0.0 | 0.0 | 0.00 | 0.00 | 0.00 | 39 | 1073.9 |
| 20260902145706 | 26 | 180 | 0.0 | 0.0 | 0.00 | 0.00 | 0.00 | 39 | 1073.9 |
| 20260902145235 | 26 | 180 | 0.0 | 0.0 | 0.00 | 0.00 | 0.00 | 39 | 1073.9 |
| 20260902144804 | 26 | 180 | 0.0 | 0.0 | 0.00 | 0.00 | 0.00 | 38 | 1073.9 |
| 20260902143901 | 26 | 180 | 0.0 | 0.0 | 0.00 | 0.00 | 0.00 | 38 | 1074.0 |
| 20260902143430 | 26 | 180 | 0.0 | 0.0 | 0.00 | 0.00 | 0.00 | 38 | 1074.1 |
| 20260902142959 | 26 | 180 | 0.0 | 0.0 | 0.00 | 0.00 | 0.00 | 39 | 1074.1 |
| 20260902142527 | 26 | 180 | 0.0 | 0.0 | 0.00 | 0.00 | 0.00 | 38 | 1074.1 |
| 20260902142056 | 26 | 180 | 0.0 | 0.0 | 0.00 | 0.00 | 0.00 | 38 | 1074.1 |
| 20260902141625 | 26 | 180 | 0.0 | 0.0 | 0.00 | 0.00 | 0.00 | 38 | 1074.2 |
| 20260902140251 | 27 | 180 | 0.0 | 0.0 | 0.00 | 0.00 | 0.00 | 38 | 1074.2 |
| 20260902135348 | 27 | 180 | 0.0 | 0.0 | 0.00 | 0.00 | 0.00 | 38 | 1074.3 |
| 20260902134917 | 27 | 180 | 0.0 | 0.0 | 0.00 | 0.00 | 0.00 | 38 | 1074.3 |
| 20260902134446 | 27 | 180 | 0.0 | 0.0 | 0.00 | 0.00 | 0.00 | 37 | 1074.3 |
| 20260902134014 | 27 | 180 | 0.0 | 0.0 | 0.00 | 0.00 | 0.00 | 37 | 1074.3 |
| 20260902133543 | 27 | 180 | 0.0 | 0.0 | 0.00 | 0.00 | 0.00 | 37 | 1074.4 |
| 20260902133112 | 27 | 180 | 0.0 | 0.0 | 0.00 | 0.00 | 0.00 | 37 | 1074.4 |
| 20260902132640 | 27 | 180 | 0.0 | 0.0 | 0.00 | 0.00 | 0.00 | 37 | 1074.5 |
| 20260902131737 | 27 | 180 | 0.0 | 0.0 | 0.00 | 0.00 | 0.00 | 37 | 1074.5 |
| 20260902130835 | 28 | 180 | 0.0 | 0.0 | 0.00 | 0.00 | 0.00 | 37 | 1074.5 |
| 20260902130403 | 28 | 180 | 0.0 | 0.0 | 0.00 | 0.00 | 0.00 | 38 | 1074.7 |
| 20260902125932 | 28 | 180 | 0.0 | 0.0 | 0.00 | 0.00 | 0.00 | 38 | 1074.7 |
| 20260902125500 | 28 | 180 | 0.0 | 0.0 | 0.00 | 0.00 | 0.00 | 38 | 1074.7 |
| 20260902124558 | 27 | 180 | 0.0 | 0.0 | 0.00 | 0.00 | 0.00 | 38 | 1074.8 |
| 20260902124126 | 27 | 180 | 0.0 | 0.0 | 0.00 | 0.00 | 0.00 | 38 | 1074.8 |
| 20260902123655 | 27 | 180 | 0.0 | 0.0 | 0.00 | 0.00 | 0.00 | 38 | 1074.9 |
| 20260902123224 | 27 | 180 | 0.0 | 0.0 | 0.00 | 0.00 | 0.00 | 38 | 1075.0 |
| 20260902120947 | 27 | 180 | 0.0 | 0.0 | 0.00 | 0.00 | 0.00 | 37 | 1075.1 |
| 20260902120515 | 27 | 180 | 0.0 | 0.0 | 0.00 | 0.00 | 0.00 | 37 | 1075.1 |
| 20260902120044 | 27 | 180 | 0.0 | 0.0 | 0.00 | 0.00 | 0.00 | 37 | 1075.1 |
| 20260902115613 | 28 | 180 | 0.0 | 0.0 | 0.00 | 0.00 | 0.00 | 37 | 1075.2 |
| 20260902115141 | 28 | 180 | 0.0 | 0.0 | 0.00 | 0.00 | 0.00 | 37 | 1075.2 |
| 20260902114710 | 28 | 180 | 0.0 | 0.0 | 0.00 | 0.00 | 0.00 | 37 | 1075.2 |
| 20260902114238 | 28 | 180 | 0.0 | 0.0 | 0.00 | 0.00 | 0.00 | 37 | 1075.1 |
| 20260902113806 | 29 | 180 | 0.0 | 0.0 | 0.00 | 0.00 | 0.00 | 36 | 1075.2 |
| 20260902112903 | 30 | 180 | 0.0 | 0.0 | 0.00 | 0.00 | 0.00 | 36 | 1075.2 |
| 20260902112431 | 30 | 180 | 0.0 | 0.0 | 0.00 | 0.00 | 0.00 | 36 | 1075.3 |
| 20260902111528 | 31 | 180 | 0.0 | 0.0 | 0.00 | 0.00 | 0.00 | 36 | 1075.4 |
| 20260902111056 | 31 | 180 | 0.0 | 0.0 | 0.00 | 0.00 | 0.00 | 36 | 1075.5 |
| 20260902110624 | 31 | 180 | 0.0 | 0.0 | 0.00 | 0.00 | 0.00 | 36 | 1075.4 |
| 20260902110152 | 32 | 180 | 0.0 | 0.0 | 0.00 | 0.00 | 0.00 | 35 | 1075.5 |
| 20260902105720 | 32 | 180 | 0.0 | 0.0 | 0.00 | 0.00 | 0.00 | 35 | 1075.7 |
| 20260902105248 | 32 | 180 | 0.0 | 0.0 | 0.00 | 0.00 | 0.00 | 35 | 1075.7 |
| 20260902104816 | 33 | 180 | 0.0 | 0.0 | 0.00 | 0.00 | 0.00 | 35 | 1075.7 |
| 20260902104344 | 33 | 180 | 0.0 | 1.6 | 0.00 | 0.00 | 0.00 | 35 | 1075.8 |
| 20260902103912 | 33 | 180 | 0.0 | 0.0 | 0.00 | 0.00 | 0.00 | 35 | 1075.8 |
| 20260902103440 | 34 | 180 | 0.0 | 0.0 | 0.00 | 0.00 | 0.00 | 35 | 1075.9 |
| 20260902103008 | 34 | 180 | 0.0 | 0.0 | 0.00 | 0.00 | 0.00 | 35 | 1075.9 |
| 20260902102535 | 35 | 180 | 0.0 | 0.0 | 0.00 | 0.00 | 0.00 | 35 | 1076.0 |
| 20260902102103 | 35 | 180 | 0.0 | 0.0 | 0.00 | 0.00 | 0.00 | 35 | 1076.0 |
| 20260902101630 | 36 | 180 | 0.0 | 0.0 | 0.00 | 0.00 | 0.00 | 35 | 1076.1 |